This is the latest recevied weather packets stored in our database for station/object KE5YIM-13. If no packets are shown the sender has not sent any weather packets the latest 1 day(s).
| Time | Temp. | Humidity | Pressure | Rain* | Wind** | Luminosity | Snow |
|---|---|---|---|---|---|---|---|
| 1777982787 | 12.78° C | 96% | 1012.4 hPa | 0 mm | 0 m/s | 102 W/m² | - |
| 1777982483 | 12.22° C | 96% | 1012.5 hPa | 0 mm | 0 m/s | 100 W/m² | - |
| 1777982178 | 12.22° C | 97% | 1012.5 hPa | 0 mm | 0 m/s | 99 W/m² | - |
| 1777981875 | 12.22° C | 98% | 1012.5 hPa | 0 mm | 0 m/s | 90 W/m² | - |
| 1777981572 | 12.22° C | 98% | 1012.5 hPa | 0 mm | 0 m/s | 123 W/m² | - |
| 1777981269 | 11.67° C | 99% | 1012.8 hPa | 0 mm | 0 m/s | 194 W/m² | - |
| 1777980965 | 11.11° C | 99% | 1012.7 hPa | 0 mm | 0 m/s | 118 W/m² | - |
| 1777980662 | 10.56° C | 99% | 1013 hPa | 0 mm | 0 m/s | 64 W/m² | - |
| 1777980358 | 10° C | 99% | 1012.8 hPa | 0 mm | 0 m/s | 59 W/m² | - |
| 1777980057 | 10° C | 99% | 1012.8 hPa | 0 mm | 0 m/s | 54 W/m² | - |
| 1777979756 | 10° C | 99% | 1012.8 hPa | 0 mm | 0 m/s | 52 W/m² | - |
| 1777979452 | 9.44° C | 99% | 1012.6 hPa | 0 mm | 0 m/s | 65 W/m² | - |
| 1777979149 | 8.89° C | 99% | 1012.4 hPa | 0 mm | 0 m/s | 79 W/m² | - |
| 1777978845 | 8.89° C | 99% | 1012.3 hPa | 0 mm | 0 m/s | 70 W/m² | - |
| 1777978542 | 8.33° C | 99% | 1012 hPa | 0 mm | 0 m/s | 60 W/m² | - |
| 1777978238 | 8.33° C | 99% | 1012.2 hPa | 0 mm | 0 m/s | 62 W/m² | - |
| 1777977935 | 7.78° C | 99% | 1012.2 hPa | 0 mm | 0 m/s | 56 W/m² | - |
| 1777977632 | 7.78° C | 98% | 1011.9 hPa | 0 mm | 0 m/s | 39 W/m² | - |
| 1777977329 | 7.78° C | 99% | 1012.1 hPa | 0 mm | 0 m/s | 32 W/m² | - |
| 1777977027 | 7.22° C | 99% | 1011.9 hPa | 0 mm | 0 m/s | 28 W/m² | - |
| 1777976723 | 7.22° C | 98% | 1011.9 hPa | 0 mm | 0 m/s | 24 W/m² | - |
| 1777976421 | 7.22° C | 98% | 1011.9 hPa | 0 mm | 0 m/s | 20 W/m² | - |
| 1777976120 | 7.22° C | 98% | 1011.7 hPa | 0 mm | 0 m/s | 17 W/m² | - |
| 1777975815 | 7.22° C | 98% | 1011.5 hPa | 0 mm | 0 m/s | 14 W/m² | - |
| 1777975513 | 6.67° C | 98% | 1011.4 hPa | 0 mm | 0 m/s | 11 W/m² | - |
* Rain latest hour (hover to see other rain measurements)
** Current wind speed in m/s (hover to see current wind gust speed)